This demonstration page uses our WeatherBlox Daily Observations layout. Learn more.

Left ArrowRight Arrow

Hourly Observations for February 8, 2017

Temp ( °F °C ) Dew Point ( °F °C ) Humidity (%) Winds ( mph kmh ) Pressure ( in mb ) Visibility ( mi km ) Precip ( " mm )
12:53 am 00:53 Mostly Clear 48 8.9 44 6.7 86 86 W 6 9 29.66 1005 8 13 N/A
1:21 am 01:21 Mostly Cloudy 49 9.4 44 6.7 83 83 W 6 9 29.71 1006 9 14 N/A
1:53 am 01:53 Cloudy 50 10 43 6.1 77 77 W 9 15 29.67 1005 10 16 N/A
2:53 am 02:53 Cloudy 50 10 43 6.1 77 77 W 8 13 29.69 1005 10 16 N/A
3:53 am 03:53 Cloudy 48 8.9 42 5.6 80 80 WNW 13 20 29.70 1006 10 16 N/A
4:53 am 04:53 Cloudy 46 7.8 40 4.4 79 79 WNW 16 26 29.73 1007 10 16 N/A
5:44 am 05:44 Cloudy 43 6.1 39 3.9 86 86 NNW 14 22 29.80 1009 8 13 N/A
5:53 am 05:53 Cloudy 42 5.6 38 3.3 85 85 NNW 13 20 29.78 1008 8 13 N/A
6:53 am 06:53 Cloudy 39 3.9 35 1.7 86 86 NW 13 20 29.83 1010 9 14 N/A
7:26 am 07:26 Cloudy 38 3.3 34 1.1 86 86 NNW 9 15 29.85 1011 9 14 N/A
7:44 am 07:44 Cloudy 38 3.3 33 0.6 83 83 N 6 9 29.85 1011 8 13 N/A
7:53 am 07:53 Cloudy 38 3.3 33 0.6 83 83 N 5 7 29.82 1010 8 13 N/A
8:53 am 08:53 Cloudy with Mist and Fog 38 3.3 34 1.1 86 86 N 6 9 29.84 1011 6 10 N/A
9:05 am 09:05 Cloudy with Haze 39 3.9 34 1.1 82 82 NNW 6 9 29.85 1011 6 10 N/A
9:28 am 09:28 Cloudy 38 3.3 34 1.1 86 86 N 7 11 29.88 1012 7 11 N/A
9:53 am 09:53 Cloudy 39 3.9 34 1.1 82 82 N 8 13 29.87 1011 7 11 N/A
10:28 am 10:28 Cloudy 39 3.9 34 1.1 82 82 N 7 11 29.88 1012 7 11 N/A
10:39 am 10:39 Cloudy 39 3.9 34 1.1 82 82 NNE 7 11 29.88 1012 7 11 N/A
10:53 am 10:53 Cloudy 39 3.9 34 1.1 82 82 NNW 8 13 29.86 1011 7 11 N/A
11:53 am 11:53 Cloudy 40 4.4 34 1.1 79 79 NNW 7 11 29.90 1013 7 11 N/A
12:13 pm 12:13 Cloudy 40 4.4 34 1.1 79 79 NNE 7 11 29.88 1012 7 11 N/A
12:53 pm 12:53 Cloudy 41 5 35 1.7 79 79 ENE 13 20 29.78 1009 7 11 N/A
1:53 pm 13:53 Cloudy 42 5.6 35 1.7 76 76 N 8 13 29.81 1009 8 13 N/A
2:53 pm 14:53 Cloudy 42 5.6 35 1.7 76 76 N N/A 29.82 1010 7 11 N/A
3:53 pm 15:53 Cloudy 41 5 35 1.7 79 79 N 8 13 29.80 1009 8 13 N/A
4:53 pm 16:53 Cloudy 41 5 35 1.7 79 79 N 8 13 29.81 1010 8 13 N/A
5:36 pm 17:36 Cloudy 38 3.3 34 1.1 86 86 N 13 20 29.83 1010 10 16 N/A
5:53 pm 17:53 Cloudy 37 2.8 33 0.6 86 86 N 17 28 29.82 1010 10 16 N/A
6:53 pm 18:53 Cloudy with Light Snow 35 1.7 31 -0.6 85 85 N 14 22 29.84 1011 3 5 N/A
7:00 pm 19:00 Cloudy with Light Snow 34 1.1 32 undefined 92 92 N 13 20 29.85 1011 3 4 N/A
7:08 pm 19:08 Cloudy with Light Snow 34 1.1 32 undefined 92 92 N 12 19 29.85 1011 3 4 0.01 0.25
7:27 pm 19:27 Cloudy with Light Snow 34 1.1 32 undefined 92 92 N 10 17 29.85 1011 2 2 0.01 0.25
7:40 pm 19:40 Cloudy with Light Snow 33 0.6 33 0.6 100 100 NNW 10 17 29.88 1012 1 2 0.02 0.51
7:49 pm 19:49 Cloudy with Light Snow 34 1 32 undefined 93 93 N 10 17 29.88 1012 1 2 0.02 0.51
7:53 pm 19:53 Cloudy with Light Snow 33 0.6 32 undefined 96 96 N 10 17 29.87 1011 1 1 0.03 0.76
8:29 pm 20:29 Cloudy with Light Snow 32 undefined 32 undefined 100 100 NNW 9 15 29.88 1012 1 2 0.03 0.76
8:44 pm 20:44 Cloudy with Light Snow 32 undefined 32 undefined 100 100 NNW 8 13 29.94 1014 1 2 0.04 1.02
8:49 pm 20:49 Cloudy with Light Snow 32 undefined 32 undefined 100 100 NW 7 11 29.94 1014 2 3 0.04 1.02
8:53 pm 20:53 Cloudy with Light Snow 32 undefined 32 undefined 100 100 NNW 12 19 29.89 1012 3 4 0.04 1.02
9:00 pm 21:00 Cloudy with Light Snow 32 undefined 31 -0.6 96 96 NNW 8 13 29.94 1014 3 5 N/A
9:31 pm 21:31 Cloudy with Light Snow 32 undefined 31 -0.6 96 96 NNW 12 19 29.97 1015 3 5 N/A
9:34 pm 21:34 Cloudy with Light Snow 32 undefined 31 -0.6 96 96 NNW 10 17 29.97 1015 3 4 0.01 0.25
9:37 pm 21:37 Cloudy with Light Snow 32 undefined 31 -0.6 96 96 NW 9 15 29.97 1015 3 5 0.01 0.25
9:53 pm 21:53 Cloudy 32 undefined 30 -1.1 92 92 NW 9 15 29.93 1013 9 14 0.01 0.25
10:02 pm 22:02 Cloudy 32 undefined 29 -1.7 88 88 NNW 9 15 29.97 1015 10 16 N/A
10:53 pm 22:53 Cloudy 31 -0.6 27 -2.8 85 85 N 13 20 29.93 1014 10 16 N/A
11:53 pm 23:53 Cloudy 30 -1.1 26 -3.3 85 85 NNW 15 24 29.98 1015 10 16 N/A

Powered by AerisWeather